Tracking 21998 objects as of 1-Dec-2020
HD Live streaming from Space Station
objects crossing your sky now

DICE 1

Track DICE 1 now!
10-day predictions
DICE 1 is classified as:


NORAD ID: 37851
Int'l Code: 2011-061B
Perigee: 436.1 km
Apogee: 683.2 km
Inclination: 101.7 °
Period: 95.7 minutes
Semi major axis: 6930 km
RCS: 0.0809 m2 (small)
Launch date: October 28, 2011
Source: United States (US)
Launch site: AIR FORCE WESTERN TEST RANGE (AFWTR)
aabbcc
Your satellite tracking list
Your tracking list is empty




NASA's NSSDC Master Catalog

Two Line Element Set (TLE):
1 37851U 11061B   20336.52303674 +.00002878 +00000-0 +15160-3 0  9998
2 37851 101.7475 144.1254 0178218 327.8013 031.2413 15.04677787496042
Source of the keplerian elements: AFSPC